Location: Équennes
(49.7375°N, 1.9622°E)
Time: 21:51:36
(UTC+00:00)

Cosmos 1190 Rocket - Pass Details

Date: 28 January 2023
Orbit: 756 x 778 km, 74.1° (Epoch: 29 March)

Event Time Altitude Azimuth Distance (km) Brightness Sun altitude
Rises 19:34:31 0° 214° (SSW) 3,251 7.6 -28.1°
Reaches altitude 10° 19:36:56 10° 218° (SW) 2,327 6.8 -28.5°
Maximum altitude 19:42:09 59° 298° (WNW) 899 4.5 -29.3°
Enters shadow 19:42:53 54° 332° (NNW) 947 4.5 -29.4°
